Location: Penton Mewsey
(51.2167°N, 1.5167°W)
Time: 17:56:47
(UTC+00:00)

SL-8 R/B - Visible Passes

Search period start: 08 August 2020 00:00
Search period end: 18 August 2020 00:00
Orbit: 656 x 668 km, 48.4° (Epoch: 07 August)

Date Brightness Start Highest point End Pass type
(mag) Time Alt. Az. Time Alt. Az. Time Alt. Az.
08 Aug 4.8 20:19:45 10° W 20:24:04 33° SSW 20:28:23 10° SE visible
08 Aug 6.0 22:04:57 10° SW 22:05:33 10° SW 22:06:08 10° SW visible
09 Aug 5.6 20:51:05 10° W 20:54:32 20° SW 20:57:58 10° S visible
11 Aug 5.7 20:10:26 10° W 20:13:46 19° SW 20:17:07 10° S visible
